CW9271 Weather Reports


Display with metric or nautical units.
time (UTC)temp
F
wind
direction
speed
MPH
gust
MPH
rain 1hr
in
rain 24hr
in
rain mn
in
humidity
%
barometer
mb
20260505140323 65 257 8.0 13.0 0.00 0.00 0.00 53 1008.2
20260505124822 59 223 2.0 9.0 0.00 0.00 0.00 60 1008.6
20260505123345 59 222 5.0 8.0 0.00 0.00 0.00 60 1008.7
20260505121824 58 183 3.0 6.0 0.00 0.00 0.00 60 1008.7
20260505120322 58 226 6.0 8.0 0.00 0.00 0.00 59 1008.4
20260505114843 58 215 2.0 5.0 0.00 0.00 0.00 59 1008.0
20260505113340 57 211 3.0 5.0 0.00 0.00 0.00 61 1008.4
20260505111822 56 176 2.0 4.0 0.00 0.00 0.00 62 1008.5
20260505110340 54 112 0.0 3.0 0.00 0.00 0.00 65 1008.4
20260505101839 52 187 1.0 3.0 0.00 0.00 0.00 67 1008.5
20260505100341 53 31 1.0 3.0 0.00 0.00 0.00 66 1008.4
20260505094842 52 267 1.0 3.0 0.00 0.00 0.00 66 1008.5
20260505093338 52 216 1.0 4.0 0.00 0.00 0.00 67 1008.5
20260505091838 52 153 1.0 2.0 0.00 0.00 0.00 67 1008.6
20260505090356 52 238 0.0 2.0 0.00 0.00 0.00 67 1008.5
20260505084839 53 355 0.0 2.0 0.00 0.00 0.00 66 1008.6
20260505083337 54 279 1.0 3.0 0.00 0.00 0.00 64 1008.6
20260505081837 54 255 3.0 5.0 0.00 0.00 0.00 64 1008.7
20260505080336 54 218 3.0 7.0 0.00 0.00 0.00 63 1009.0
20260505074840 54 215 4.0 8.0 0.00 0.00 0.00 64 1009.0
20260505073337 54 232 1.0 4.0 0.00 0.00 0.00 64 1008.9
20260505071837 54 204 1.0 3.0 0.00 0.00 0.00 63 1009.1
20260505070334 54 223 2.0 4.0 0.00 0.00 0.00 62 1009.0
20260505064838 54 256 3.0 5.0 0.00 0.00 0.00 62 1009.0
20260505063356 55 284 2.0 6.0 0.00 0.00 0.00 61 1009.1
20260505061835 55 218 4.0 9.0 0.00 0.00 0.00 60 1009.1
20260505060332 55 234 5.0 12.0 0.00 0.00 0.00 60 1009.1
20260505054832 56 221 8.0 15.0 0.00 0.00 0.00 58 1009.1
20260505053333 56 240 8.0 14.0 0.00 0.00 0.00 58 1009.0
20260505051833 56 232 5.0 8.0 0.00 0.00 0.00 57 1008.8
20260505050330 57 226 3.0 9.0 0.00 0.00 0.00 56 1008.9
20260505040327 58 221 1.0 2.0 0.00 0.00 0.00 50 1008.5
20260505034849 59 221 2.0 6.0 0.00 0.00 0.00 49 1008.4
20260505033325 59 284 3.0 6.0 0.00 0.00 0.00 48 1008.2
20260505031830 60 193 1.0 8.0 0.00 0.00 0.00 48 1008.1
20260505030327 59 181 3.0 5.0 0.00 0.00 0.00 49 1008.1
20260505024826 58 88 2.0 4.0 0.00 0.00 0.00 49 1008.2
20260505023323 59 119 1.0 3.0 0.00 0.00 0.00 48 1008.2
20260505021842 60 176 0.0 1.0 0.00 0.00 0.00 47 1008.1
20260505020323 61 176 0.0 1.0 0.00 0.00 0.00 45 1008.1
20260505014822 62 217 0.0 2.0 0.00 0.00 0.00 44 1008.0
20260505013340 62 155 1.0 6.0 0.00 0.00 0.00 44 1008.0
20260505011840 62 173 2.0 5.0 0.00 0.00 0.00 43 1007.8
20260505010321 62 207 3.0 5.0 0.00 0.00 0.00 43 1007.7
20260505004843 62 218 2.0 7.0 0.00 0.00 0.00 42 1007.4
20260505003339 62 227 5.0 7.0 0.00 0.00 0.00 42 1007.2
20260505001839 63 196 1.0 6.0 0.00 0.00 0.00 42 1006.9
20260505000334 63 234 4.0 6.0 0.00 0.00 0.00 42 1006.7
20260504234839 63 215 5.0 8.0 0.00 0.00 0.00 42 1006.6
20260504233336 64 223 2.0 5.0 0.00 0.00 0.00 42 1006.4
20260504231835 64 229 7.0 11.0 0.00 0.00 0.00 41 1006.3
20260504230331 65 245 7.0 13.0 0.00 0.00 0.00 40 1006.2
20260504224835 66 248 10.0 16.0 0.00 0.00 0.00 40 1006.1
20260504223332 66 217 9.0 19.0 0.00 0.00 0.00 39 1005.8
20260504221832 66 233 11.0 19.0 0.00 0.00 0.00 39 1005.6
20260504220328 67 254 8.0 17.0 0.00 0.00 0.00 39 1005.8
20260504214825 66 242 10.0 19.0 0.00 0.00 0.00 39 1005.8